Address 0x0f2595a45e1b489745dc148800b13e8472872f9e

 
Txn Hash
Block
From
To
Value [Txn Fee]
0x61cf2c7f7597949e755a2184de9b773255a3e656b7b590df3fb206a5a987ba9752023312021-02-26 2:03:419 hrs 59 mins ago0x0f2595a45e1b489745dc148800b13e8472872f9eOUT PancakeSwap: Router0 BNB0.00162088
0xfa73ec13c506c0c6567868a7b0c95002361575e680a2eebb2e060cf6a159f26152022992021-02-26 2:02:0510 hrs 1 min ago0x0f2595a45e1b489745dc148800b13e8472872f9eOUT PancakeSwap: Router0 BNB0.00035798
0xba060e770bd96297a2a34318b735169ba99c43c78439a9bf91550c0121b8458e52022812021-02-26 2:01:1110 hrs 2 mins ago0x0f2595a45e1b489745dc148800b13e8472872f9eOUT PancakeSwap: Router0 BNB0.00176776
0x52f07cf623e70412eb9c09f938f6aa05bf9d08a0a8a09c4d89e92e3a904c19a151992082021-02-25 23:26:1612 hrs 37 mins ago0x0f2595a45e1b489745dc148800b13e8472872f9eOUT PancakeSwap: Router0 BNB0.00165345
0x753d5dc964a2fbffa534bb283a60fff97925b89aa160bda226e308ba2971d1ea51984032021-02-25 22:45:5213 hrs 17 mins ago0x0f2595a45e1b489745dc148800b13e8472872f9eOUT PancakeSwap: Router0 BNB0.00150313
0x13172047afe9adc1a4eb6d030dc566ab1e9253be0609b8c6fc70b69a3494ca6751983852021-02-25 22:44:5813 hrs 18 mins ago0x0f2595a45e1b489745dc148800b13e8472872f9eOUT PancakeSwap: Router0 BNB0.0003587
0x08f199f7902070f06a486096b7c6dfbf2d8002fd791417693a8600b0bb18aa8251983592021-02-25 22:43:4013 hrs 19 mins ago0x0f2595a45e1b489745dc148800b13e8472872f9eOUT PancakeSwap: Router0 BNB0.00192437
0x5aff760b8899e4282ad311c10eab9a424d7be0042357d9780aca9c72e783477851980552021-02-25 22:28:2213 hrs 34 mins ago0x0f2595a45e1b489745dc148800b13e8472872f9eOUT 0x11187b577b7dc6eabb6bc30965c3a9872cd8ad6a0 BNB0.00044526
0x5e989a9c19027eec1ca6ff416fd67d2b4ae398ab152026b787be00c339ef98c751980382021-02-25 22:27:3113 hrs 35 mins ago0x0f2595a45e1b489745dc148800b13e8472872f9eOUT PancakeSwap: Router0 BNB0.00165345
0x58300bc8b642e77c7e2ce0a6377d4ae2c89fe72f014aceafca3df5f67306d59951979772021-02-25 22:24:2813 hrs 38 mins ago0x0f2595a45e1b489745dc148800b13e8472872f9eOUT PancakeSwap: Router0 BNB0.0003587
0x1fc453377c09efdd2899df27b37910ad6c528adea9edecf0bdaa0e952e4e5e5351959042021-02-25 20:40:4615 hrs 22 mins ago0x0f2595a45e1b489745dc148800b13e8472872f9eOUT PancakeSwap: Router0 BNB0.00173446
0x1d92de581e1dcf9a32392dbb7469799e9b0d35bf285bd9b98a41824aae42fe2551953932021-02-25 20:15:1315 hrs 48 mins ago0x0f2595a45e1b489745dc148800b13e8472872f9eOUT PancakeSwap: Router0 BNB0.00149916
0xd385db5e1117a1e316569e66d3b82576cac60b52028ddf3e270cea308fe29c7351951912021-02-25 20:05:0615 hrs 58 mins ago0x0f2595a45e1b489745dc148800b13e8472872f9eOUT PancakeSwap: Router0 BNB0.0011713
0x41dcfb4aa33f2a18e63fa44cf106ef78857cf74041c8aa422800e9de46d3254751951752021-02-25 20:04:1815 hrs 59 mins ago0x0f2595a45e1b489745dc148800b13e8472872f9eOUT PancakeSwap: Router0 BNB0.00158446
0x98af58f28d3d143c7ca22224dc711820c24327a6569f459428cb5327d6e1f0c051951422021-02-25 20:02:3916 hrs ago0x0f2595a45e1b489745dc148800b13e8472872f9eOUT PancakeSwap: Router0 BNB0.00164054
0xeba08acbca179ea321cae7b0d7fcb108f854e7d6b7f0387924dc135bd700515b51950922021-02-25 20:00:0916 hrs 3 mins ago0x0f2595a45e1b489745dc148800b13e8472872f9eOUT 0x661899bd302cf9805f588c40472d9a7136cd643a0 BNB0.00044406
0xfc844eee9b257fdd8632aa4009c5fad44ba4176cfb74fee224094a9af9dd950751950772021-02-25 19:59:2416 hrs 3 mins ago0x0f2595a45e1b489745dc148800b13e8472872f9eOUT PancakeSwap: Router0 BNB0.00149219
0x354c38c3fa5e8bdfff4cc2d7ac957460eb5833f2797cf2cc047f017866fb516e51943862021-02-25 19:24:5116 hrs 38 mins ago0x0f2595a45e1b489745dc148800b13e8472872f9eOUT PancakeSwap: Router0 BNB0.0017386
0x3ee6f119a31180105aeb4447e4fccd908364e4b0df16c3c2b4c463351fe6a17c51938782021-02-25 18:59:1517 hrs 4 mins ago0x0f2595a45e1b489745dc148800b13e8472872f9eOUT PancakeSwap: Router0 BNB0.00162307
0x68964befe4036bfec52128f3f726463d1de5fea88b3e757a340b296b732a21dd51937032021-02-25 18:50:1717 hrs 13 mins ago0x0f2595a45e1b489745dc148800b13e8472872f9eOUT PancakeSwap: Router0 BNB0.00161688
0xbbed58e7b204a101a073d29354c533287245a36c8fd4b1b59fc0debb62c0335351936962021-02-25 18:49:5617 hrs 13 mins ago0x0f2595a45e1b489745dc148800b13e8472872f9eOUT PancakeSwap: Router0 BNB0.00192015
0x6c14c3992de61b41a66215ac3bac9a2159b76f3b6adcb0962821790729b7958a51935152021-02-25 18:40:5117 hrs 22 mins ago0x0f2595a45e1b489745dc148800b13e8472872f9eOUT 0xaf05b0f5cf144a767ae466d7d85fe2cda244d0a20 BNB0.00044503
0xcfe8632026be9e7ded0b7f03df2b1d9d0d5075612225565348d8bbc79144470851934772021-02-25 18:38:5717 hrs 24 mins ago0x0f2595a45e1b489745dc148800b13e8472872f9eOUT PancakeSwap: Router0 BNB0.0016161
0xb60f017667a0e5247f23cd2d19c816bb5c1e957fb20b017a98dff736dab2f9bd51931882021-02-25 18:24:3017 hrs 38 mins ago0x0f2595a45e1b489745dc148800b13e8472872f9eOUT PancakeSwap: Router0 BNB0.00035858
0x4a1a4357b123730df8b44302ac88d20af1d76e5f0616890f32581a1c21629aad51929532021-02-25 18:12:4517 hrs 50 mins ago0x0f2595a45e1b489745dc148800b13e8472872f9eOUT PancakeSwap: Router0 BNB0.0017386
[ Download CSV Export 
Latest 14 internal transactions
Parent Txn Hash Block From To Value
0xd385db5e1117a1e316569e66d3b82576cac60b52028ddf3e270cea308fe29c7351951912021-02-25 20:05:0615 hrs 58 mins ago PancakeSwap: Router0x0f2595a45e1b489745dc148800b13e8472872f9e0.012175661971942337 BNB
0xb4a13857c2d025a4a3437b791d9126fdc5bc5eeb1dc379da2dc21595d33037e951873252021-02-25 13:29:2722 hrs 33 mins ago PancakeSwap: Router0x0f2595a45e1b489745dc148800b13e8472872f9e0.023278819715921381 BNB
0xc8753f3f851da47e1e80d9211b33f8e29dd609c50d9c451e0593c461eaa3874951418812021-02-23 23:30:052 days 12 hrs ago PancakeSwap: Router0x0f2595a45e1b489745dc148800b13e8472872f9e0.007929498568534539 BNB
0x69d65f7be22935a962968a86eec7c264004e69aacd5756da7d0da33d95db14f751377522021-02-23 20:03:372 days 15 hrs ago PancakeSwap: Router0x0f2595a45e1b489745dc148800b13e8472872f9e0.021214623916783512 BNB
0x3ddc5a11166bac1cacbe460b6448171e618809f829cab607e44d7d44fe0e016651055352021-02-22 16:57:153 days 19 hrs ago PancakeSwap: Router0x0f2595a45e1b489745dc148800b13e8472872f9e0.05345080576783907 BNB
0xf9d879835aeb829821feda26806d33e4bc8856f1c8c3c4daf04619ce1493e63e50234152021-02-19 19:24:306 days 16 hrs ago PancakeSwap: Router0x0f2595a45e1b489745dc148800b13e8472872f9e0.261539097632335145 BNB
0x05c1393d9bf5eeb674b21f8632114c862488c5d74243034099f0824165ef05d849862052021-02-18 10:43:288 days 1 hr ago Binance: WBNB Token0x0f2595a45e1b489745dc148800b13e8472872f9e0.665880414042438558 BNB
0xbde797ef8b17e77bb95d060b5726d09ee3839b109dd2f7943364e1a932d755d649752362021-02-18 1:32:178 days 10 hrs ago PancakeSwap: Router0x0f2595a45e1b489745dc148800b13e8472872f9e0.04199 BNB
0x5072059dcf1f6989c79d2e841f995b4b713651145784867c51e6982baf2c45e649452442021-02-17 0:28:069 days 11 hrs ago PancakeSwap: Router0x0f2595a45e1b489745dc148800b13e8472872f9e2.429863523854843331 BNB
0x46650b95d3e81531eb783fccc86fde788c5c0791f4a89e55ac100444a049b9d849365202021-02-16 17:10:209 days 18 hrs ago PancakeSwap: Router0x0f2595a45e1b489745dc148800b13e8472872f9e0.522691830834415744 BNB
0xf0bd6b88b3c5b6f8c9b43bc4e946032a944697a474346100222f1a4da110d6d549270582021-02-16 9:14:2710 days 2 hrs ago PancakeSwap: Router0x0f2595a45e1b489745dc148800b13e8472872f9e0.000019306800811209 BNB
0xdc474e565f03dd4ee479df48265870e945159582a55568a99fb3a0dd3fe45a2249228262021-02-16 5:42:3910 days 6 hrs ago 0xc946764369623f560a5962d32c1d16d45f1bd6fa0x0f2595a45e1b489745dc148800b13e8472872f9e0.079843749781660579 BNB
0xf2358301c280134c8a1bb0c11458727202bc79674ea1be6803d0533732794eae47868262021-02-11 12:14:0514 days 23 hrs ago PancakeSwap: Router0x0f2595a45e1b489745dc148800b13e8472872f9e0.001205457484796611 BNB
0xb58e225f59d28fb0ee8309f5c194db3b9b3cc8d415a5c76e07c930e3e9f452fe47677732021-02-10 20:21:2315 days 15 hrs ago PancakeSwap: Router0x0f2595a45e1b489745dc148800b13e8472872f9e1.088139073872989528 BNB
[ Download CSV Export 
Loading

Contract Name:
0 BNB

Compiler Version
0

Optimization Enabled:
0 BNB

Other Settings:
-NA-
Block Transaction Gas Used Reward
Age Block Fee Address BC Fee Address Voting Power Jailed Incoming
Block Uncle Number Difficulty Gas Used Reward
Loading
Loading
Make sure to use the "Vote Down" button for any spammy posts, and the "Vote Up" for interesting conversations.